STARLINK-31509, 59533

Orbit data source: Space-Track

STARLINK-31509, 59533 is a payload satellite owned by SpaceX/Seattle (US) in LEO that was launched on Wed, 17 Apr 2024 UTC via an FALCON 9 launch vehicle from the Air Force Eastern Test Range (AFETR). Payload-class satellites include a variety of spacecraft equipped with specific instruments for various scientific and technological missions. These include communications satellites like Starlink; space stations such as the ISS; scientific satellites like the Hubble; Earth observation satellites from companies like Planet Labs, Umbra, and HawkEye 360; GPS; miniature CubeSats for education and research; and military/defense satellites.

Loading next visibility...
Identifier
59533, 2024-073Y
Orbit
LEO
Country
Flag of USUS
Related business
Manufacturer
SpaceX/Seattle
Mission
Operational Commercial Communications
Bus & Motor
STARLINK V2M, Unknown motor
Mass
730 kg wet, ~700 kg dry
Launch date (UTC)
2024-04-17 (2 years ago)
Launch vehicle
FALCON 9
Launch site
Air Force Eastern Test Range (AFETR)
Object type
Payload
Rocket body
Debris
Shape & HBR
Box + 2 Pan, 17.7 m
Radar Cross Section
33.884 m², Large (>1 m²)

Expand to show TLE details & history
Last TLE update: 2 days ago

TLE from 2 days ago
0 STARLINK-31509
1 59533U 24073Y   26171.23187551 -.00001576  00000-0 -47807-4 0  9991
2 59533  43.0005  99.3088 0000552 253.2647 106.8144 15.27565062121857
Epoch: 2026-06-20T05:33Z
TLE epoch observation values (Epoch: 2026-06-20T05:33:54.044Z)
Latitude
-0°
Longitude
107.38415°
Altitude
482.979 km
Speed
7.626 km/s
True Right ascension
06h 37m 14s
True Declination
0° 00' 00"
Sunlit
Object was in daylight at epoch
Visualization orbit readout
Latitude
Unknown
Longitude
Unknown
Altitude
Unknown
Speed
Unknown
Apparent Right ascension
Unknown
Apparent Declination
Unknown
Sunlit
N/A
Visualization observer readout
Local Sidereal Time
14:06:32
Azimuth
Unknown
Elevation
Unknown
Doppler factor
Unknown
Orbital elements
Apogee altitude
485.418 km
Perigee altitude
484.66 km
Semi-major axis
6,863.176 km
Eccentricity
0.00006
Inclination
43.0005°
RAAN
99.3088°
Arg. of periapsis
253.2647°
True anomaly
106.82045°
Mean anomaly
106.8144°
Eccentric anomaly
106.81743°
Mean motion
3.81729 °/min
Orbital period
94.31 mins
BSTAR
-0.000047807
Loading maneuver chart data...
Computing Atmospheric mass density...
Loading historical data...
Loading historical data...
Loading historical data...
Loading historical data...
Loading historical data...
Loading historical data...
Loading historical data...

Documentation

Showing up to 5 results
|